FW4331 Weather Reports


time (UTC)temp
C
wind
direction
speed
KPH
gust
KPH
rain 1hr
cm
rain 24hr
cm
rain mn
cm
humidity
%
barometer
mb
20260503214621 17 330 3.2 8.0 0.00 0.00 0.00 16 1013.0
20260503213017 17 318 4.8 16.1 0.00 0.00 0.00 16 1013.1
20260503211515 17 291 3.2 17.7 0.00 0.00 0.00 18 1013.1
20260503210012 17 286 6.4 14.5 0.00 0.00 0.00 17 1013.1
20260503204510 17 195 1.6 14.5 0.00 0.00 0.00 17 1013.2
20260503203008 16 4 4.8 17.7 0.00 0.00 0.00 16 1013.4
20260503201506 17 350 4.8 19.3 0.00 0.00 0.00 16 1013.5
20260503200001 16 247 3.2 11.3 0.00 0.00 0.00 18 1013.7
20260503194605 16 228 4.8 24.1 0.00 0.00 0.00 18 1013.9
20260503193104 16 300 1.6 19.3 0.00 0.00 0.00 19 1014.2
20260503191604 16 170 3.2 9.7 0.00 0.00 0.00 22 1014.5
20260503190052 16 224 1.6 19.3 0.00 0.00 0.00 21 1014.7
20260503184559 16 76 1.6 17.7 0.00 0.00 0.00 19 1014.8
20260503183046 15 288 4.8 14.5 0.00 0.00 0.00 20 1014.8
20260503181604 15 274 4.8 22.5 0.00 0.00 0.00 21 1015.0
20260503180050 15 233 3.2 14.5 0.00 0.00 0.00 24 1015.1
20260503174545 14 11 1.6 14.5 0.00 0.00 0.00 23 1015.1
20260503173043 14 348 1.6 22.5 0.00 0.00 0.00 24 1015.4
20260503171530 13 127 1.6 17.7 0.00 0.00 0.00 25 1015.5
20260503081544 5 153 0.0 3.2 0.00 0.00 0.00 54 1014.0
20260503071631 4 322 0.0 1.6 0.00 0.00 0.00 55 1013.5
20260503054507 7 11 1.6 6.4 0.00 0.00 0.00 45 1013.1
20260503053100 7 46 1.6 9.7 0.00 0.00 0.00 44 1013.1
20260503051557 7 312 3.2 14.5 0.00 0.00 0.00 43 1013.2
20260503050052 8 359 1.6 11.3 0.00 0.00 0.00 42 1013.2
20260503044550 8 16 1.6 12.9 0.00 0.00 0.00 42 1013.3
20260503043044 8 324 0.0 11.3 0.00 0.00 0.00 42 1013.3
20260503041540 8 53 1.6 19.3 0.00 0.00 0.00 42 1013.3
20260503040137 8 32 9.7 19.3 0.00 0.00 0.00 41 1013.1
20260503034520 8 35 9.7 19.3 0.00 0.00 0.00 41 1013.2
20260503033030 9 359 8.0 27.4 0.00 0.00 0.00 40 1013.0
20260503031514 10 49 3.2 22.5 0.00 0.00 0.00 39 1012.9
20260503030024 10 22 3.2 22.5 0.00 0.00 0.00 38 1012.9
20260503024510 10 27 9.7 27.4 0.00 0.00 0.00 38 1012.9
20260503023007 10 23 9.7 22.5 0.00 0.00 0.00 37 1012.9
20260503021608 11 335 3.2 19.3 0.00 0.00 0.00 37 1012.9
20260503020004 11 317 0.0 8.0 0.00 0.00 0.00 38 1012.9
20260503014502 11 11 0.0 11.3 0.00 0.00 0.00 37 1012.7
20260503013100 11 18 0.0 8.0 0.00 0.00 0.00 37 1012.5
20260503011604 11 19 0.0 8.0 0.00 0.00 0.00 37 1012.4
20260503010108 11 348 0.0 4.8 0.00 0.00 0.00 36 1012.0
20260503004554 11 341 0.0 6.4 0.00 0.00 0.00 36 1011.7
20260503003059 11 346 4.8 11.3 0.00 0.00 0.00 35 1011.5
20260503001550 12 23 1.6 19.3 0.00 0.00 0.00 34 1011.4
20260503000054 12 322 3.2 16.1 0.00 0.00 0.00 34 1011.3
20260502234546 12 349 1.6 12.9 0.00 0.00 0.00 33 1010.8
20260502233043 12 11 3.2 14.5 0.00 0.00 0.00 32 1010.7
20260502231541 12 307 1.6 19.3 0.00 0.00 0.00 32 1010.8
20260502230038 13 56 6.4 14.5 0.00 0.00 0.00 31 1010.6
20260502224535 13 41 4.8 20.9 0.00 0.00 0.00 31 1010.7
20260502223034 13 35 6.4 16.1 0.00 0.00 0.00 28 1010.6
20260502221531 13 319 3.2 11.3 0.00 0.00 0.00 27 1010.6
20260502220031 14 295 0.0 16.1 0.00 0.00 0.00 28 1010.5